,,Stat6,,Stat2,,Stat8,,Stat9,,Stat10,,Wind1,,Wind1,
time,status,PA1M_AVG,status,PR1M_SUM,status,RH1M_AVG,status,SR1M_AVG,status,TA1M_AVG,status,W1dAve1m,status,W1sAve1m,
2004-05-26, 00:00:00,VALID,919.423,VALID,0,VALID,100,VALID,-0.118866,VALID,19.6461,VALID,148,VALID,0.406076,
2004-05-26, 00:01:00,VALID,919.417,VALID,0,VALID,100,VALID,-0.101885,VALID,19.6463,VALID,148,VALID,0.625601,
2004-05-26, 00:02:00,VALID,919.427,VALID,0,VALID,100,VALID,-0.101885,VALID,19.6396,VALID,143,VALID,0.485102,
2004-05-26, 00:03:00,VALID,919.418,VALID,0,VALID,100,VALID,-0.118866,VALID,19.624,VALID,142,VALID,0.668786,
2004-05-26, 00:04:00,VALID,919.42,VALID,0,VALID,100,VALID,-0.0849042,VALID,19.6034,VALID,142,VALID,0.680831,
2004-05-26, 00:05:00,VALID,919.431,VALID,0,VALID,100,VALID,-0.0169808,VALID,19.6131,VALID,142,VALID,0.527798,
2004-05-26, 00:06:00,VALID,919.422,VALID,0,VALID,100,VALID,-0.0169808,VALID,19.59,VALID,142,VALID,0.580602,
2004-05-26, 00:07:00,VALID,919.43,VALID,0,VALID,100,VALID,0,VALID,19.5962,VALID,147,VALID,0.759722,
2004-05-26, 00:08:00,VALID,919.453,VALID,0,VALID,100,VALID,0,VALID,19.6026,VALID,145,VALID,0.924716,
2004-05-26, 00:09:00,VALID,919.445,VALID,0,VALID,100,VALID,-0.0339617,VALID,19.6026,VALID,138,VALID,0.954728,
2004-05-26, 00:10:00,VALID,919.44,VALID,0,VALID,100,VALID,-0.0339617,VALID,19.5972,VALID,122,VALID,0.910866,
2004-05-26, 00:11:00,VALID,919.441,VALID,0,VALID,100,VALID,0,VALID,19.5716,VALID,111,VALID,1.13027,
2004-05-26, 00:12:00,VALID,919.439,VALID,0,VALID,100,VALID,-0.0339617,VALID,19.552,VALID,112,VALID,1.02816,
2004-05-26, 00:13:00,VALID,919.432,VALID,0,VALID,100,VALID,-0.0169808,VALID,19.5286,VALID,120,VALID,0.795015,
2004-05-26, 00:14:00,VALID,919.433,VALID,0,VALID,100,VALID,-0.0509425,VALID,19.513,VALID,114,VALID,0.635719,
2004-05-26, 00:15:00,VALID,919.416,VALID,0,VALID,100,VALID,-0.0169808,VALID,19.5187,VALID,125,VALID,0.566236,
2004-05-26, 00:16:00,VALID,919.4,VALID,0,VALID,100,VALID,0,VALID,19.5319,VALID,141,VALID,0.363467,
2004-05-26, 00:17:00,VALID,919.398,VALID,0,VALID,100,VALID,0,VALID,19.5289,VALID,145,VALID,0.206214,
2004-05-26, 00:18:00,VALID,919.383,VALID,0,VALID,100,VALID,-0.0169808,VALID,19.5388,VALID,145,VALID,0.25218,
2004-05-26, 00:19:00,VALID,919.379,VALID,0,VALID,100,VALID,-0.0339617,VALID,19.5323,VALID,145,VALID,0.247159,
2004-05-26, 00:20:00,VALID,919.371,VALID,0,VALID,100,VALID,-0.0509425,VALID,19.5254,VALID,144,VALID,0.265434,
2004-05-26, 00:21:00,VALID,919.37,VALID,0,VALID,100,VALID,-0.0339617,VALID,19.5485,VALID,145,VALID,0.0816592,
2004-05-26, 00:22:00,VALID,919.379,VALID,0,VALID,100,VALID,-0.0169808,VALID,19.5487,VALID,144,VALID,0.0585029,
2004-05-26, 00:23:00,VALID,919.357,VALID,0,VALID,100,VALID,-0.0339617,VALID,19.5289,VALID,140,VALID,0.287246,
2004-05-26, 00:24:00,VALID,919.34,VALID,0,VALID,100,VALID,-0.0509425,VALID,19.5261,VALID,136,VALID,0.231597,
2004-05-26, 00:25:00,VALID,919.331,VALID,0,VALID,100,VALID,0,VALID,19.4996,VALID,136,VALID,0.114099,
2004-05-26, 00:26:00,VALID,919.312,VALID,0,VALID,100,VALID,-0.0339617,VALID,19.5003,VALID,136,VALID,0.181641,
2004-05-26, 00:27:00,VALID,919.299,VALID,0,VALID,100,VALID,-0.0339617,VALID,19.5033,VALID,136,VALID,0,
2004-05-26, 00:28:00,VALID,919.294,VALID,0,VALID,100,VALID,0,VALID,19.4936,VALID,136,VALID,0.160866,
2004-05-26, 00:29:00,VALID,919.291,VALID,0,VALID,100,VALID,-0.0169808,VALID,19.4871,VALID,137,VALID,0.325977,
2004-05-26, 00:30:00,VALID,919.282,VALID,0,VALID,100,VALID,0,VALID,19.4909,VALID,139,VALID,0.308117,
2004-05-26, 00:31:00,VALID,919.286,VALID,0,VALID,100,VALID,-0.0849042,VALID,19.4842,VALID,218,VALID,0.472929,
2004-05-26, 00:32:00,VALID,919.284,VALID,0,VALID,100,VALID,-0.0169808,VALID,19.4576,VALID,217,VALID,0.393111,
2004-05-26, 00:33:00,VALID,919.279,VALID,0,VALID,100,VALID,-0.0169808,VALID,19.4844,VALID,211,VALID,0.103743,
2004-05-26, 00:34:00,VALID,919.273,VALID,0,VALID,100,VALID,-0.0169808,VALID,19.4938,VALID,210,VALID,0.252418,
2004-05-26, 00:35:00,VALID,919.264,VALID,0,VALID,100,VALID,-0.0339617,VALID,19.4807,VALID,199,VALID,0.462466,
2004-05-26, 00:36:00,VALID,919.281,VALID,0,VALID,100,VALID,-0.0169808,VALID,19.462,VALID,176,VALID,0.749092,
2004-05-26, 00:37:00,VALID,919.274,VALID,0,VALID,100,VALID,0,VALID,19.4218,VALID,181,VALID,0.779018,
2004-05-26, 00:38:00,VALID,919.283,VALID,0,VALID,100,VALID,0,VALID,19.4191,VALID,178,VALID,0.372582,
2004-05-26, 00:39:00,VALID,919.285,VALID,0,VALID,100,VALID,-0.0169808,VALID,19.4159,VALID,178,VALID,0.218217,
2004-05-26, 00:40:00,VALID,919.288,VALID,0,VALID,100,VALID,-0.0339617,VALID,19.4062,VALID,177,VALID,0.202083,
2004-05-26, 00:41:00,VALID,919.281,VALID,0,VALID,100,VALID,-0.0169808,VALID,19.4156,VALID,177,VALID,0.137463,
2004-05-26, 00:42:00,VALID,919.286,VALID,0,VALID,100,VALID,0,VALID,19.4186,VALID,177,VALID,0.171875,
2004-05-26, 00:43:00,VALID,919.267,VALID,0,VALID,100,VALID,0,VALID,19.4193,VALID,165,VALID,0.356399,
2004-05-26, 00:44:00,VALID,919.251,VALID,0,VALID,100,VALID,-0.0169808,VALID,19.4226,VALID,141,VALID,0.51903,
2004-05-26, 00:45:00,VALID,919.229,VALID,0,VALID,100,VALID,0,VALID,19.4129,VALID,159,VALID,0.735491,
2004-05-26, 00:46:00,VALID,919.22,VALID,0,VALID,100,VALID,-0.0169808,VALID,19.4193,VALID,174,VALID,0.494922,
2004-05-26, 00:47:00,VALID,919.204,VALID,0,VALID,100,VALID,-0.0169808,VALID,19.4258,VALID,177,VALID,0.244004,
2004-05-26, 00:48:00,VALID,919.188,VALID,0,VALID,100,VALID,-0.0169808,VALID,19.4355,VALID,155,VALID,0.447674,
2004-05-26, 00:49:00,VALID,919.184,VALID,0,VALID,100,VALID,0.0339617,VALID,19.4323,VALID,159,VALID,0.339472,
2004-05-26, 00:50:00,VALID,919.19,VALID,0,VALID,100,VALID,0,VALID,19.4193,VALID,169,VALID,0.375,
2004-05-26, 00:51:00,VALID,919.18,VALID,0,VALID,100,VALID,0,VALID,19.4193,VALID,147,VALID,0.505716,
2004-05-26, 00:52:00,VALID,919.187,VALID,0,VALID,100,VALID,0,VALID,19.4092,VALID,135,VALID,0.419922,
2004-05-26, 00:53:00,VALID,919.174,VALID,0,VALID,100,VALID,0,VALID,19.3769,VALID,105,VALID,0.565225,
2004-05-26, 00:54:00,VALID,919.172,VALID,0,VALID,100,VALID,0,VALID,19.3607,VALID,57,VALID,0.463728,
2004-05-26, 00:55:00,VALID,919.151,VALID,0,VALID,100,VALID,0,VALID,19.357,VALID,62,VALID,0.307546,
2004-05-26, 00:56:00,VALID,919.142,VALID,0,VALID,100,VALID,-0.0169808,VALID,19.3545,VALID,68,VALID,0.385356,
2004-05-26, 00:57:00,VALID,919.118,VALID,0,VALID,100,VALID,0.0169808,VALID,19.364,VALID,54,VALID,0.421131,
2004-05-26, 00:58:00,VALID,919.098,VALID,0,VALID,100,VALID,0.0169808,VALID,19.3642,VALID,54,VALID,0.61772,
2004-05-26, 00:59:00,VALID,919.073,VALID,0,VALID,100,VALID,0,VALID,19.3704,VALID,54,VALID,0.678711,
2004-05-26, 01:00:00,VALID,919.056,VALID,0,VALID,100,VALID,0,VALID,19.3804,VALID,65,VALID,0.61452,
2004-05-26, 01:01:00,VALID,919.033,VALID,0,VALID,100,VALID,0,VALID,19.3737,VALID,80,VALID,0.621189,
2004-05-26, 01:02:00,VALID,919.019,VALID,0,VALID,100,VALID,0.0169808,VALID,19.3573,VALID,87,VALID,0.880469,
2004-05-26, 01:03:00,VALID,918.985,VALID,0,VALID,100,VALID,-0.0169808,VALID,19.3578,VALID,66,VALID,0.933321,
2004-05-26, 01:04:00,VALID,918.987,VALID,0,VALID,100,VALID,0.0169808,VALID,19.3314,VALID,66,VALID,0.821243,
2004-05-26, 01:05:00,VALID,918.959,VALID,0,VALID,100,VALID,0,VALID,19.3155,VALID,68,VALID,0.484189,
2004-05-26, 01:06:00,VALID,918.949,VALID,0,VALID,100,VALID,0.0169808,VALID,19.289,VALID,99,VALID,0.553234,
2004-05-26, 01:07:00,VALID,918.929,VALID,0,VALID,100,VALID,0.0339617,VALID,19.2766,VALID,107,VALID,0.621804,
2004-05-26, 01:08:00,VALID,918.941,VALID,0,VALID,100,VALID,0.0169808,VALID,19.2408,VALID,73,VALID,0.52309,
2004-05-26, 01:09:00,VALID,918.952,VALID,0,VALID,100,VALID,0.0169808,VALID,19.2443,VALID,72,VALID,0.778392,
2004-05-26, 01:10:00,VALID,918.96,VALID,0,VALID,100,VALID,0,VALID,19.2835,VALID,71,VALID,0.648633,
2004-05-26, 01:11:00,VALID,918.952,VALID,0,VALID,100,VALID,0,VALID,19.2865,VALID,61,VALID,0.357777,
2004-05-26, 01:12:00,VALID,918.955,VALID,0,VALID,100,VALID,0,VALID,19.2867,VALID,61,VALID,0.212081,
2004-05-26, 01:13:00,VALID,918.957,VALID,0,VALID,100,VALID,0,VALID,19.2803,VALID,61,VALID,0.139323,
2004-05-26, 01:14:00,VALID,918.936,VALID,0,VALID,100,VALID,0,VALID,19.2646,VALID,60,VALID,0.00334821,
2004-05-26, 01:15:00,VALID,918.94,VALID,0,VALID,100,VALID,0,VALID,19.2351,VALID,37,VALID,0.118886,
2004-05-26, 01:16:00,VALID,918.916,VALID,0,VALID,100,VALID,0,VALID,19.2254,VALID,360,VALID,0.253057,
2004-05-26, 01:17:00,VALID,918.912,VALID,0,VALID,100,VALID,0,VALID,19.2219,VALID,360,VALID,0.275112,
2004-05-26, 01:18:00,VALID,918.895,VALID,0,VALID,100,VALID,0,VALID,19.1772,VALID,360,VALID,0.482922,
2004-05-26, 01:19:00,VALID,918.881,VALID,0,VALID,100,VALID,0.0169808,VALID,19.1929,VALID,360,VALID,0.449805,
2004-05-26, 01:20:00,VALID,918.867,VALID,0,VALID,100,VALID,0.0169808,VALID,19.2192,VALID,360,VALID,0.136265,
2004-05-26, 01:21:00,VALID,918.863,VALID,0,VALID,100,VALID,0,VALID,19.2413,VALID,360,VALID,0.0457849,
2004-05-26, 01:22:00,VALID,918.849,VALID,0,VALID,100,VALID,0.0169808,VALID,19.2318,VALID,360,VALID,0.316319,
2004-05-26, 01:23:00,VALID,918.843,VALID,0,VALID,100,VALID,0.0339617,VALID,19.2058,VALID,360,VALID,0.628534,
2004-05-26, 01:24:01,VALID,918.834,VALID,0,VALID,100,VALID,0.0169808,VALID,19.1703,VALID,12,VALID,0.751042,
2004-05-26, 01:25:00,VALID,918.821,VALID,0,VALID,100,VALID,0,VALID,19.1382,VALID,19,VALID,0.801417,
2004-05-26, 01:26:00,VALID,918.791,VALID,0,VALID,100,VALID,0.0169808,VALID,19.0995,VALID,26,VALID,0.798147,
2004-05-26, 01:27:00,VALID,918.783,VALID,0,VALID,100,VALID,0.0339617,VALID,19.0767,VALID,29,VALID,0.951042,
2004-05-26, 01:28:00,VALID,918.749,VALID,0,VALID,100,VALID,0,VALID,19.0868,VALID,37,VALID,0.794643,
2004-05-26, 01:29:00,VALID,918.735,VALID,0,VALID,100,VALID,0.0339617,VALID,19.0861,VALID,63,VALID,0.779978,
2004-05-26, 01:30:00,VALID,918.719,VALID,0,VALID,100,VALID,0.0339617,VALID,19.0896,VALID,69,VALID,0.953125,
2004-05-26, 01:31:00,VALID,918.715,VALID,0,VALID,100,VALID,0.0169808,VALID,19.0993,VALID,74,VALID,0.94494,
2004-05-26, 01:32:00,VALID,918.701,VALID,0,VALID,100,VALID,0.0339617,VALID,19.1152,VALID,69,VALID,0.782452,
2004-05-26, 01:33:00,VALID,918.695,VALID,0,VALID,100,VALID,0.0509425,VALID,19.0988,VALID,61,VALID,0.90987,
2004-05-26, 01:34:01,VALID,918.682,VALID,0,VALID,100,VALID,0.0169808,VALID,19.1161,VALID,48,VALID,0.802024,
2004-05-26, 01:35:00,VALID,918.678,VALID,0,VALID,100,VALID,-0.0509425,VALID,19.1166,VALID,39,VALID,0.810268,
2004-05-26, 01:36:01,VALID,918.671,VALID,0,VALID,100,VALID,-0.0849042,VALID,19.1295,VALID,26,VALID,0.816679,
2004-05-26, 01:37:00,VALID,918.663,VALID,0,VALID,100,VALID,-0.0679233,VALID,19.1491,VALID,20,VALID,0.760231,
2004-05-26, 01:38:00,VALID,918.657,VALID,0,VALID,100,VALID,-0.0509425,VALID,19.1812,VALID,13,VALID,0.532393,
2004-05-26, 01:39:00,VALID,918.64,VALID,0,VALID,100,VALID,-0.101885,VALID,19.1973,VALID,17,VALID,0.561141,
2004-05-26, 01:40:01,VALID,918.623,VALID,0,VALID,100,VALID,-0.0849042,VALID,19.2266,VALID,30,VALID,0.462847,
2004-05-26, 01:41:00,VALID,918.614,VALID,0,VALID,100,VALID,-0.101885,VALID,19.2398,VALID,53,VALID,0.760099,
2004-05-26, 01:42:00,VALID,918.589,VALID,0,VALID,100,VALID,-0.0679233,VALID,19.2492,VALID,57,VALID,0.717115,
2004-05-26, 01:43:00,VALID,918.577,VALID,0,VALID,100,VALID,-0.0849042,VALID,19.249,VALID,59,VALID,0.66061,
2004-05-26, 01:44:01,VALID,918.571,VALID,0,VALID,100,VALID,-0.101885,VALID,19.2328,VALID,77,VALID,0.656977,
2004-05-26, 01:45:00,VALID,918.562,VALID,0,VALID,100,VALID,-0.0849042,VALID,19.2167,VALID,80,VALID,0.544969,
2004-05-26, 01:46:00,VALID,918.561,VALID,0,VALID,100,VALID,-0.0509425,VALID,19.1973,VALID,80,VALID,0.596484,
2004-05-26, 01:47:01,VALID,918.54,VALID,0,VALID,100,VALID,-0.0509425,VALID,19.201,VALID,80,VALID,0.525724,
2004-05-26, 01:48:00,VALID,918.535,VALID,0,VALID,100,VALID,-0.0849042,VALID,19.2005,VALID,67,VALID,0.516026,
2004-05-26, 01:49:01,VALID,918.514,VALID,0,VALID,100,VALID,-0.0679233,VALID,19.2264,VALID,60,VALID,0.452939,
2004-05-26, 01:50:00,VALID,918.493,VALID,0,VALID,100,VALID,-0.101885,VALID,19.2264,VALID,60,VALID,0.546196,
2004-05-26, 01:51:01,VALID,918.477,VALID,0,VALID,100,VALID,-0.0509425,VALID,19.2266,VALID,59,VALID,0.599516,
2004-05-26, 01:52:00,VALID,918.472,VALID,0,VALID,100,VALID,-0.0679233,VALID,19.2132,VALID,51,VALID,0.603924,
2004-05-26, 01:53:00,VALID,918.471,VALID,0,VALID,100,VALID,-0.0679233,VALID,19.2132,VALID,29,VALID,0.678385,
2004-05-26, 01:54:00,VALID,918.465,VALID,0,VALID,100,VALID,-0.0339617,VALID,19.2199,VALID,29,VALID,0.686942,
2004-05-26, 01:55:00,VALID,918.476,VALID,0,VALID,100,VALID,-0.0339617,VALID,19.2005,VALID,26,VALID,0.654297,
2004-05-26, 01:56:00,VALID,918.464,VALID,0,VALID,100,VALID,-0.0679233,VALID,19.2035,VALID,22,VALID,0.563772,
2004-05-26, 01:57:00,VALID,918.459,VALID,0,VALID,100,VALID,-0.0509425,VALID,19.1973,VALID,17,VALID,0.450218,
2004-05-26, 01:58:00,VALID,918.457,VALID,0,VALID,100,VALID,-0.0679233,VALID,19.1971,VALID,346,VALID,0.619048,
2004-05-26, 01:59:00,VALID,918.47,VALID,0,VALID,100,VALID,-0.0509425,VALID,19.2234,VALID,337,VALID,0.509943,
2004-05-26, 02:00:00,VALID,918.472,VALID,0,VALID,100,VALID,-0.0509425,VALID,19.21,VALID,337,VALID,0.0332485,
2004-05-26, 02:01:00,VALID,918.478,VALID,0,VALID,100,VALID,-0.0679233,VALID,19.2134,VALID,337,VALID,0,
2004-05-26, 02:02:01,VALID,918.484,VALID,0,VALID,100,VALID,-0.0679233,VALID,19.2169,VALID,337,VALID,0,
2004-05-26, 02:03:00,VALID,918.491,VALID,0,VALID,100,VALID,-0.0679233,VALID,19.2162,VALID,337,VALID,0,
2004-05-26, 02:04:01,VALID,918.467,VALID,0,VALID,100,VALID,-0.0849042,VALID,19.2298,VALID,337,VALID,0,
2004-05-26, 02:05:00,VALID,918.464,VALID,0,VALID,100,VALID,-0.0849042,VALID,19.2072,VALID,337,VALID,0.093936,
2004-05-26, 02:06:01,VALID,918.459,VALID,0,VALID,100,VALID,-0.0679233,VALID,19.1941,VALID,337,VALID,0,
2004-05-26, 02:07:00,VALID,918.454,VALID,0,VALID,100,VALID,-0.0849042,VALID,19.1846,VALID,337,VALID,0,
2004-05-26, 02:08:00,VALID,918.433,VALID,0,VALID,100,VALID,-0.0339617,VALID,19.1784,VALID,337,VALID,0,
2004-05-26, 02:09:00,VALID,918.417,VALID,0,VALID,100,VALID,-0.0509425,VALID,19.1556,VALID,337,VALID,0,
2004-05-26, 02:10:00,VALID,918.409,VALID,0,VALID,100,VALID,-0.0169808,VALID,19.1523,VALID,337,VALID,0,
2004-05-26, 02:11:01,VALID,918.416,VALID,0,VALID,100,VALID,-0.101885,VALID,19.1717,VALID,337,VALID,0,
2004-05-26, 02:12:01,VALID,918.401,VALID,0,VALID,100,VALID,-0.0509425,VALID,19.1782,VALID,337,VALID,0,
2004-05-26, 02:13:00,VALID,918.407,VALID,0,VALID,100,VALID,-0.0509425,VALID,19.1754,VALID,337,VALID,0.0768229,
2004-05-26, 02:14:00,VALID,918.401,VALID,0,VALID,100,VALID,-0.101885,VALID,19.1653,VALID,337,VALID,0.278088,
2004-05-26, 02:15:01,VALID,918.413,VALID,0,VALID,100,VALID,-0.0509425,VALID,19.1657,VALID,337,VALID,0.433689,
2004-05-26, 02:16:01,VALID,918.41,VALID,0,VALID,100,VALID,-0.0849042,VALID,19.1424,VALID,337,VALID,0.0976563,
2004-05-26, 02:17:00,VALID,918.422,VALID,0,VALID,100,VALID,-0.101885,VALID,19.1327,VALID,337,VALID,0,
2004-05-26, 02:18:01,VALID,918.424,VALID,0,VALID,100,VALID,-0.0509425,VALID,19.1491,VALID,337,VALID,0,
2004-05-26, 02:19:00,VALID,918.409,VALID,0,VALID,100,VALID,-0.0509425,VALID,19.165,VALID,337,VALID,0.109375,
2004-05-26, 02:20:00,VALID,918.393,VALID,0,VALID,100,VALID,-0.101885,VALID,19.1886,VALID,337,VALID,0.00885417,
2004-05-26, 02:21:00,VALID,918.362,VALID,0,VALID,100,VALID,-0.0849042,VALID,19.1819,VALID,337,VALID,0.238672,
2004-05-26, 02:22:00,VALID,918.322,VALID,0,VALID,100,VALID,-0.0849042,VALID,19.1814,VALID,337,VALID,0.381037,
2004-05-26, 02:23:00,VALID,918.28,VALID,0,VALID,100,VALID,-0.0679233,VALID,19.1712,VALID,345,VALID,0.296148,
2004-05-26, 02:24:01,VALID,918.268,VALID,0,VALID,100,VALID,-0.0509425,VALID,19.1675,VALID,57,VALID,0.376715,
2004-05-26, 02:25:01,VALID,918.233,VALID,0,VALID,100,VALID,-0.0169808,VALID,19.1586,VALID,117,VALID,0.388494,
2004-05-26, 02:26:00,VALID,918.239,VALID,0,VALID,100,VALID,-0.0339617,VALID,19.136,VALID,131,VALID,0.372917,
2004-05-26, 02:27:01,VALID,918.207,VALID,0,VALID,100,VALID,-0.101885,VALID,19.1364,VALID,124,VALID,0.297991,
2004-05-26, 02:28:01,VALID,918.209,VALID,0,VALID,100,VALID,-0.0679233,VALID,19.1005,VALID,139,VALID,0.537642,
2004-05-26, 02:29:01,VALID,918.198,VALID,0,VALID,100,VALID,-0.0849042,VALID,19.0883,VALID,152,VALID,0.699673,
2004-05-26, 02:30:00,VALID,918.173,VALID,0,VALID,100,VALID,-0.0509425,VALID,19.0684,VALID,139,VALID,0.800347,
2004-05-26, 02:31:00,VALID,918.159,VALID,0,VALID,100,VALID,-0.0849042,VALID,19.0488,VALID,135,VALID,1.00906,
2004-05-26, 02:32:00,VALID,918.136,VALID,0,VALID,100,VALID,-0.0849042,VALID,19.0592,VALID,127,VALID,1.10701,
2004-05-26, 02:33:01,VALID,918.128,VALID,0,VALID,100,VALID,-0.0679233,VALID,19.0622,VALID,123,VALID,0.91627,
2004-05-26, 02:34:00,VALID,918.135,VALID,0,VALID,100,VALID,-0.0679233,VALID,19.0652,VALID,108,VALID,0.831745,
2004-05-26, 02:35:00,VALID,918.133,VALID,0,VALID,100,VALID,-0.101885,VALID,19.0684,VALID,103,VALID,0.861861,
2004-05-26, 02:36:00,VALID,918.124,VALID,0,VALID,100,VALID,-0.0679233,VALID,19.0749,VALID,92,VALID,0.577035,
2004-05-26, 02:37:00,VALID,918.097,VALID,0,VALID,100,VALID,-0.0849042,VALID,19.0749,VALID,98,VALID,0.612614,
2004-05-26, 02:38:01,VALID,918.075,VALID,0,VALID,100,VALID,-0.0849042,VALID,19.0977,VALID,106,VALID,0.840661,
2004-05-26, 02:39:01,VALID,918.063,VALID,0,VALID,100,VALID,-0.0509425,VALID,19.1201,VALID,106,VALID,0.585938,
2004-05-26, 02:40:00,VALID,918.046,VALID,0,VALID,100,VALID,-0.0679233,VALID,19.1263,VALID,65,VALID,0.474019,
2004-05-26, 02:41:01,VALID,918.039,VALID,0,VALID,100,VALID,-0.0339617,VALID,19.1136,VALID,61,VALID,0.56032,
2004-05-26, 02:42:00,VALID,918.035,VALID,0,VALID,100,VALID,-0.0679233,VALID,19.0942,VALID,61,VALID,0.677144,
2004-05-26, 02:43:00,VALID,918.006,VALID,0,VALID,100,VALID,-0.0169808,VALID,19.0682,VALID,70,VALID,0.819382,
2004-05-26, 02:44:01,VALID,918.013,VALID,0,VALID,100,VALID,-0.0509425,VALID,19.0585,VALID,92,VALID,0.924237,
2004-05-26, 02:45:00,VALID,918.015,VALID,0,VALID,100,VALID,-0.0679233,VALID,19.0582,VALID,106,VALID,1.19531,
2004-05-26, 02:46:01,VALID,918.021,VALID,0,VALID,100,VALID,-0.0679233,VALID,19.0456,VALID,123,VALID,1.40391,
2004-05-26, 02:47:00,VALID,918.037,VALID,0,VALID,100,VALID,-0.0849042,VALID,19.0421,VALID,116,VALID,1.47656,
2004-05-26, 02:48:00,VALID,918.049,VALID,0,VALID,100,VALID,-0.0509425,VALID,19.0617,VALID,114,VALID,1.65062,
2004-05-26, 02:49:00,VALID,918.065,VALID,0,VALID,100,VALID,-0.0339617,VALID,19.058,VALID,117,VALID,1.37627,
2004-05-26, 02:50:01,VALID,918.063,VALID,0,VALID,100,VALID,0.0169808,VALID,19.0672,VALID,111,VALID,1.17969,
2004-05-26, 02:51:01,VALID,918.05,VALID,0,VALID,100,VALID,0.0679233,VALID,19.0702,VALID,111,VALID,1.12972,
2004-05-26, 02:52:01,VALID,918.051,VALID,0,VALID,100,VALID,0.0679233,VALID,19.0928,VALID,127,VALID,1.22904,
2004-05-26, 02:53:00,VALID,918.05,VALID,0,VALID,100,VALID,0.0339617,VALID,19.1057,VALID,127,VALID,1.34785,
2004-05-26, 02:54:00,VALID,918.055,VALID,0,VALID,100,VALID,0.0339617,VALID,19.1154,VALID,145,VALID,0.550195,
2004-05-26, 02:55:00,VALID,918.079,VALID,0,VALID,100,VALID,0.0509425,VALID,19.1251,VALID,143,VALID,0.680959,
2004-05-26, 02:56:00,VALID,918.098,VALID,0,VALID,100,VALID,0.0509425,VALID,19.1218,VALID,143,VALID,0.624092,
2004-05-26, 02:57:00,VALID,918.128,VALID,0,VALID,100,VALID,0.0849042,VALID,19.1244,VALID,139,VALID,0.605114,
2004-05-26, 02:58:01,VALID,918.149,VALID,0,VALID,100,VALID,0.0169808,VALID,19.1214,VALID,137,VALID,0.793945,
2004-05-26, 02:59:00,VALID,918.16,VALID,0,VALID,100,VALID,0.0339617,VALID,19.1186,VALID,133,VALID,0.636628,
2004-05-26, 03:00:01,VALID,918.164,VALID,0,VALID,100,VALID,0.0169808,VALID,19.1221,VALID,127,VALID,0.861281,
2004-05-26, 03:01:00,VALID,918.179,VALID,0,VALID,100,VALID,0.0339617,VALID,19.1281,VALID,125,VALID,0.773074,
2004-05-26, 03:02:01,VALID,918.18,VALID,0,VALID,100,VALID,0.0339617,VALID,19.141,VALID,118,VALID,0.4482,
2004-05-26, 03:03:00,VALID,918.175,VALID,0,VALID,100,VALID,0.0339617,VALID,19.1447,VALID,118,VALID,0.0917515,
2004-05-26, 03:04:01,VALID,918.173,VALID,0,VALID,100,VALID,0.0169808,VALID,19.1576,VALID,118,VALID,0.0799279,
2004-05-26, 03:05:00,VALID,918.17,VALID,0,VALID,100,VALID,-0.0679233,VALID,19.1717,VALID,118,VALID,0,
2004-05-26, 03:06:01,VALID,918.172,VALID,0,VALID,100,VALID,-0.0339617,VALID,19.1846,VALID,118,VALID,0,
2004-05-26, 03:07:00,VALID,918.171,VALID,0,VALID,100,VALID,-0.0679233,VALID,19.1941,VALID,118,VALID,0,
2004-05-26, 03:08:00,VALID,918.173,VALID,0,VALID,100,VALID,-0.0679233,VALID,19.2075,VALID,118,VALID,0,
2004-05-26, 03:09:00,VALID,918.18,VALID,0,VALID,100,VALID,-0.0679233,VALID,19.1941,VALID,118,VALID,0.155488,
2004-05-26, 03:10:01,VALID,918.188,VALID,0,VALID,100,VALID,-0.0849042,VALID,19.2042,VALID,118,VALID,0.087843,
2004-05-26, 03:11:00,VALID,918.173,VALID,0,VALID,100,VALID,-0.0849042,VALID,19.2142,VALID,118,VALID,0.0268895,
2004-05-26, 03:12:00,VALID,918.152,VALID,0,VALID,100,VALID,-0.0169808,VALID,19.207,VALID,119,VALID,0.254883,
2004-05-26, 03:13:00,VALID,918.136,VALID,0,VALID,100,VALID,-0.0509425,VALID,19.1717,VALID,119,VALID,0.27763,
2004-05-26, 03:14:01,VALID,918.102,VALID,0,VALID,100,VALID,-0.0169808,VALID,19.1618,VALID,119,VALID,0.0270712,
2004-05-26, 03:15:00,VALID,918.093,VALID,0,VALID,100,VALID,-0.0849042,VALID,19.1851,VALID,119,VALID,0,
2004-05-26, 03:16:01,VALID,918.086,VALID,0,VALID,100,VALID,-0.101885,VALID,19.1879,VALID,119,VALID,0,
2004-05-26, 03:17:01,VALID,918.07,VALID,0,VALID,100,VALID,-0.0849042,VALID,19.1879,VALID,119,VALID,0,
2004-05-26, 03:18:01,VALID,918.057,VALID,0,VALID,100,VALID,-0.0679233,VALID,19.2003,VALID,119,VALID,0,
2004-05-26, 03:19:01,VALID,918.045,VALID,0,VALID,100,VALID,-0.0509425,VALID,19.2264,VALID,119,VALID,0,
2004-05-26, 03:20:01,VALID,918.031,VALID,0,VALID,100,VALID,0.0339617,VALID,19.2187,VALID,119,VALID,0,
2004-05-26, 03:21:00,VALID,918.027,VALID,0,VALID,100,VALID,0.0339617,VALID,19.2247,VALID,119,VALID,0.124467,
2004-05-26, 03:22:00,VALID,918.034,VALID,0,VALID,100,VALID,0.0509425,VALID,19.2242,VALID,119,VALID,0.0607851,
2004-05-26, 03:23:01,VALID,918.055,VALID,0,VALID,100,VALID,0.0509425,VALID,19.245,VALID,119,VALID,0.178925,
2004-05-26, 03:24:01,VALID,918.077,VALID,0,VALID,100,VALID,0.0679233,VALID,19.215,VALID,132,VALID,0.518169,
2004-05-26, 03:25:01,VALID,918.085,VALID,0,VALID,100,VALID,0.0339617,VALID,19.2284,VALID,141,VALID,0.595084,
2004-05-26, 03:26:01,VALID,918.096,VALID,0,VALID,100,VALID,0.0509425,VALID,19.2157,VALID,137,VALID,0.68608,
2004-05-26, 03:27:01,VALID,918.105,VALID,0,VALID,100,VALID,0.0169808,VALID,19.2026,VALID,127,VALID,0.596946,
2004-05-26, 03:28:01,VALID,918.122,VALID,0,VALID,100,VALID,0.0169808,VALID,19.203,VALID,111,VALID,0.634301,
2004-05-26, 03:29:00,VALID,918.12,VALID,0,VALID,100,VALID,0.0339617,VALID,19.1924,VALID,89,VALID,0.811738,
2004-05-26, 03:30:00,VALID,918.124,VALID,0,VALID,100,VALID,0.0339617,VALID,19.2348,VALID,62,VALID,0.816778,
2004-05-26, 03:31:01,VALID,918.127,VALID,0,VALID,100,VALID,0.0169808,VALID,19.2281,VALID,56,VALID,0.778161,
2004-05-26, 03:32:00,VALID,918.126,VALID,0,VALID,100,VALID,0.0339617,VALID,19.2477,VALID,76,VALID,0.593568,
2004-05-26, 03:33:01,VALID,918.125,VALID,0,VALID,100,VALID,0.0509425,VALID,19.2537,VALID,84,VALID,0.78016,
2004-05-26, 03:34:01,VALID,918.106,VALID,0,VALID,100,VALID,0,VALID,19.2542,VALID,95,VALID,0.896835,
2004-05-26, 03:35:01,VALID,918.105,VALID,0,VALID,100,VALID,-0.0679233,VALID,19.2519,VALID,105,VALID,0.660429,
2004-05-26, 03:36:01,VALID,918.109,VALID,0,VALID,100,VALID,-0.0849042,VALID,19.272,VALID,99,VALID,0.478423,
2004-05-26, 03:37:00,VALID,918.106,VALID,0,VALID,100,VALID,-0.0509425,VALID,19.2815,VALID,79,VALID,0.56359,
2004-05-26, 03:38:01,VALID,918.094,VALID,0,VALID,100,VALID,-0.0679233,VALID,19.2812,VALID,83,VALID,0.749818,
2004-05-26, 03:39:01,VALID,918.095,VALID,0,VALID,100,VALID,-0.0849042,VALID,19.2854,VALID,93,VALID,0.699855,